Time,TemperatureF,DewpointF,PressureIn,WindDirection,WindDirectionDegrees,WindSpeedMPH,WindSpeedGustMPH,Humidity,HourlyPrecipIn,Conditions,Clouds,dailyrainin,SolarRadiationWatts/m^2,SoftwareType,DateUTC
2013-06-05 00:22:00,53.0,49.0,30.01,South,186,5.0,6.0,86,-99.99,,,-99.99,0.000000,,2013-06-05 07:22:00,
2013-06-05 00:32:00,53.0,49.0,30.01,South,186,5.0,6.0,86,-99.99,,,-99.99,0.000000,,2013-06-05 07:32:00,
2013-06-05 00:40:00,56.0,48.0,30.02,South,176,0.0,0.0,76,-99.99,,,-99.99,0.000000,,2013-06-05 07:40:00,
2013-06-05 01:22:00,56.0,48.0,30.02,South,176,0.0,0.0,76,-99.99,,,-99.99,0.000000,,2013-06-05 08:22:00,
2013-06-05 01:32:00,56.0,48.0,30.02,South,176,0.0,0.0,76,-99.99,,,-99.99,0.000000,,2013-06-05 08:32:00,
2013-06-05 01:40:00,57.0,47.0,30.02,East,79,1.0,4.0,71,-99.99,,,-99.99,0.000000,,2013-06-05 08:40:00,
2013-06-05 02:22:00,57.0,47.0,30.02,East,79,1.0,4.0,71,-99.99,,,-99.99,0.000000,,2013-06-05 09:22:00,
2013-06-05 02:32:00,57.0,47.0,30.02,East,79,1.0,4.0,71,-99.99,,,-99.99,0.000000,,2013-06-05 09:32:00,
2013-06-05 03:22:00,58.0,47.0,30.01,North,-999,0.0,0.0,67,-99.99,,,-99.99,0.000000,,2013-06-05 10:22:00,
2013-06-05 04:22:00,59.0,46.0,30.00,ENE,75,3.0,4.0,63,-99.99,,,-99.99,0.000000,,2013-06-05 11:22:00,
2013-06-05 04:40:00,54.0,48.0,30.00,South,184,1.0,3.0,80,-99.99,,,-99.99,0.000000,,2013-06-05 11:40:00,
2013-06-05 05:22:00,54.0,48.0,30.00,South,184,1.0,3.0,80,-99.99,,,-99.99,0.000000,,2013-06-05 12:22:00,
2013-06-05 07:40:00,59.0,48.0,30.02,NW,311,1.0,3.0,65,-99.99,,,-99.99,324.000000,,2013-06-05 14:40:00,
2013-06-05 08:22:00,59.0,48.0,30.02,NW,311,1.0,3.0,65,-99.99,,,-99.99,324.000000,,2013-06-05 15:22:00,
2013-06-05 08:33:00,59.0,48.0,30.02,NW,311,1.0,3.0,65,-99.99,,,-99.99,324.000000,,2013-06-05 15:33:00,
2013-06-05 08:40:00,61.0,50.0,30.04,WSW,240,1.0,2.0,66,-99.99,,,-99.99,541.000000,,2013-06-05 15:40:00,
2013-06-05 09:22:00,61.0,50.0,30.04,WSW,240,1.0,2.0,66,-99.99,,,-99.99,541.000000,,2013-06-05 16:22:00,
2013-06-05 09:32:00,61.0,50.0,30.04,WSW,240,1.0,2.0,66,-99.99,,,-99.99,541.000000,,2013-06-05 16:32:00,
2013-06-05 09:40:00,61.0,51.0,30.04,SW,223,2.0,3.0,69,-99.99,,,-99.99,747.000000,,2013-06-05 16:40:00,
2013-06-05 10:22:00,61.0,51.0,30.04,SW,223,2.0,3.0,69,-99.99,,,-99.99,747.000000,,2013-06-05 17:22:00,
2013-06-05 10:32:00,61.0,51.0,30.04,SW,223,2.0,3.0,69,-99.99,,,-99.99,747.000000,,2013-06-05 17:32:00,
2013-06-05 10:40:00,62.0,51.0,30.05,West,274,2.0,3.0,67,-99.99,,,-99.99,930.000000,,2013-06-05 17:40:00,
2013-06-05 11:22:00,62.0,51.0,30.05,West,274,2.0,3.0,67,-99.99,,,-99.99,930.000000,,2013-06-05 18:22:00,
2013-06-05 11:32:00,62.0,51.0,30.05,West,274,2.0,3.0,67,-99.99,,,-99.99,930.000000,,2013-06-05 18:32:00,
2013-06-05 11:40:00,65.0,52.0,30.05,West,261,3.0,5.0,63,-99.99,,,-99.99,1034.000000,,2013-06-05 18:40:00,
2013-06-05 12:23:00,65.0,52.0,30.05,West,261,3.0,5.0,63,-99.99,,,-99.99,1034.000000,,2013-06-05 19:23:00,
2013-06-05 12:32:00,65.0,52.0,30.05,West,261,3.0,5.0,63,-99.99,,,-99.99,1034.000000,,2013-06-05 19:32:00,
2013-06-05 12:40:00,65.0,52.0,30.05,West,270,3.0,6.0,62,-99.99,,,-99.99,1056.000000,,2013-06-05 19:40:00,
2013-06-05 13:22:00,65.0,52.0,30.05,West,270,3.0,6.0,62,-99.99,,,-99.99,1056.000000,,2013-06-05 20:22:00,
2013-06-05 13:32:00,65.0,52.0,30.05,West,270,3.0,6.0,62,-99.99,,,-99.99,1056.000000,,2013-06-05 20:32:00,
2013-06-05 13:40:00,65.0,51.0,30.04,WNW,282,2.0,4.0,60,-99.99,,,-99.99,1046.000000,,2013-06-05 20:40:00,
2013-06-05 14:22:00,65.0,51.0,30.04,WNW,282,2.0,4.0,60,-99.99,,,-99.99,1046.000000,,2013-06-05 21:22:00,
2013-06-05 14:33:00,65.0,51.0,30.04,WNW,282,2.0,4.0,60,-99.99,,,-99.99,1046.000000,,2013-06-05 21:33:00,
2013-06-05 14:40:00,65.0,51.0,30.04,WNW,288,2.0,4.0,60,-99.99,,,-99.99,977.000000,,2013-06-05 21:40:00,
2013-06-05 15:22:00,65.0,51.0,30.04,WNW,288,2.0,4.0,60,-99.99,,,-99.99,977.000000,,2013-06-05 22:22:00,
2013-06-05 15:32:00,65.0,51.0,30.04,WNW,288,2.0,4.0,60,-99.99,,,-99.99,977.000000,,2013-06-05 22:32:00,
2013-06-05 15:40:00,66.0,50.0,30.03,West,259,2.0,5.0,58,-99.99,,,-99.99,862.000000,,2013-06-05 22:40:00,
2013-06-05 16:22:00,66.0,50.0,30.03,West,259,2.0,5.0,58,-99.99,,,-99.99,862.000000,,2013-06-05 23:22:00,
2013-06-05 16:32:00,66.0,50.0,30.03,West,259,2.0,5.0,58,-99.99,,,-99.99,862.000000,,2013-06-05 23:32:00,
2013-06-05 16:40:00,63.0,50.0,30.02,WNW,290,3.0,5.0,63,-99.99,,,-99.99,704.000000,,2013-06-05 23:40:00,
2013-06-05 17:22:00,63.0,50.0,30.02,WNW,290,3.0,5.0,63,-99.99,,,-99.99,704.000000,,2013-06-06 00:22:00,
2013-06-05 17:32:00,63.0,50.0,30.02,WNW,290,3.0,5.0,63,-99.99,,,-99.99,704.000000,,2013-06-06 00:32:00,
2013-06-05 17:40:00,65.0,50.0,30.01,WNW,290,3.0,4.0,58,-99.99,,,-99.99,505.000000,,2013-06-06 00:40:00,
2013-06-05 18:22:00,65.0,50.0,30.01,WNW,290,3.0,4.0,58,-99.99,,,-99.99,505.000000,,2013-06-06 01:22:00,
2013-06-05 18:32:00,65.0,50.0,30.01,WNW,290,3.0,4.0,58,-99.99,,,-99.99,505.000000,,2013-06-06 01:32:00,
2013-06-05 18:40:00,66.0,50.0,30.01,WNW,296,1.0,3.0,57,-99.99,,,-99.99,289.000000,,2013-06-06 01:40:00,
2013-06-05 19:22:00,66.0,50.0,30.01,WNW,296,1.0,3.0,57,-99.99,,,-99.99,289.000000,,2013-06-06 02:22:00,
2013-06-05 19:32:00,66.0,50.0,30.01,WNW,296,1.0,3.0,57,-99.99,,,-99.99,289.000000,,2013-06-06 02:32:00,
2013-06-05 19:40:00,65.0,49.0,30.01,WNW,287,2.0,3.0,57,-99.99,,,-99.99,99.000000,,2013-06-06 02:40:00,
2013-06-05 20:22:00,65.0,49.0,30.01,WNW,287,2.0,3.0,57,-99.99,,,-99.99,99.000000,,2013-06-06 03:22:00,
2013-06-05 20:33:00,65.0,49.0,30.01,WNW,287,2.0,3.0,57,-99.99,,,-99.99,99.000000,,2013-06-06 03:33:00,
2013-06-05 20:40:00,62.0,48.0,30.01,NNW,332,1.0,2.0,62,-99.99,,,-99.99,1.000000,,2013-06-06 03:40:00,
2013-06-05 21:23:00,62.0,48.0,30.01,NNW,332,1.0,2.0,62,-99.99,,,-99.99,1.000000,,2013-06-06 04:23:00,
2013-06-05 21:33:00,62.0,48.0,30.01,NNW,332,1.0,2.0,62,-99.99,,,-99.99,1.000000,,2013-06-06 04:33:00,
2013-06-05 21:40:00,63.0,48.0,30.01,NNW,345,3.0,3.0,58,-99.99,,,-99.99,0.000000,,2013-06-06 04:40:00,
2013-06-05 22:22:00,63.0,48.0,30.01,NNW,345,3.0,3.0,58,-99.99,,,-99.99,0.000000,,2013-06-06 05:22:00,
2013-06-05 22:32:00,63.0,48.0,30.01,NNW,345,3.0,3.0,58,-99.99,,,-99.99,0.000000,,2013-06-06 05:32:00,
2013-06-05 22:40:00,60.0,48.0,30.02,NW,312,3.0,5.0,65,-99.99,,,-99.99,0.000000,,2013-06-06 05:40:00,
2013-06-05 23:22:00,60.0,48.0,30.02,NW,312,3.0,5.0,65,-99.99,,,-99.99,0.000000,,2013-06-06 06:22:00,